Location: Podia
(1.5569°N, 32.3469°E)
Time: 12:33:22
(UTC+00:00)

Courier 1B Rocket - Visible Passes

Search period start: 26 September 2020 00:00
Search period end: 06 October 2020 00:00
Orbit: 920 x 1202 km, 28.2° (Epoch: 25 September)

Date Brightness Start Highest point End Pass type
(mag) Time Alt. Az. Time Alt. Az. Time Alt. Az.
26 Sep 6.7 00:54:39 27° E 00:54:39 27° E 00:57:38 10° ENE visible
26 Sep 5.4 02:41:04 22° W 02:44:56 45° NNW 02:50:53 10° NE visible
26 Sep 7.5 16:02:56 10° WSW 16:07:24 16° SSW 16:11:57 10° SSE visible
27 Sep 4.9 01:44:14 69° N 01:44:14 69° N 01:50:13 10° NE visible
28 Sep 7.0 00:47:23 21° ENE 00:47:23 21° ENE 00:49:19 10° ENE visible
28 Sep 6.0 02:33:47 22° WNW 02:36:20 29° NNW 02:41:44 10° NNE visible
28 Sep 7.8 15:57:24 10° SSW 15:59:07 11° SSW 16:00:49 10° S visible
29 Sep 5.8 01:36:53 38° N 01:36:53 38° N 01:41:20 10° NE visible
30 Sep 7.4 00:39:57 14° NE 00:39:57 14° NE 00:40:41 10° NE visible
30 Sep 6.4 02:26:20 18° NW 02:27:50 20° NNW 02:32:18 10° NNE visible
01 Oct 6.6 01:29:21 22° N 01:29:21 22° N 01:32:11 10° NNE visible
02 Oct 6.8 02:18:42 13° NNW 02:19:26 13° NNW 02:22:25 10° N visible
03 Oct 7.2 01:21:37 14° NNE 01:21:37 14° NNE 01:22:47 10° NNE visible
